This is the latest recevied weather packets stored in our database for station/object KE8WMS. If no packets are shown the sender has not sent any weather packets the latest 10 day(s).
| Time | Temp. | Humidity | Pressure | Rain* | Wind** | Luminosity | Snow |
|---|---|---|---|---|---|---|---|
| 1778041871 | 7.78° C | 99% | 1005.4 hPa | 0 mm | - | 0 W/m² | - |
| 1778041570 | 7.78° C | 99% | 1005.5 hPa | 0 mm | - | 0 W/m² | - |
| 1778041268 | 7.78° C | 99% | 1005.3 hPa | 0 mm | - | 0 W/m² | - |
| 1778040966 | 8.33° C | 99% | 1005.3 hPa | 1.27 mm | - | 0 W/m² | - |
| 1778040663 | 7.78° C | 99% | 1005.6 hPa | 1.27 mm | - | 0 W/m² | - |
| 1778040361 | 7.78° C | 99% | 1005.8 hPa | 0 mm | - | 0 W/m² | - |
| 1778040056 | 7.78° C | 99% | 1005.6 hPa | 1.78 mm | - | 0 W/m² | - |
| 1778039754 | 7.78° C | 99% | 1005.7 hPa | 1.78 mm | - | 0 W/m² | - |
| 1778039450 | 7.78° C | 99% | 1005.9 hPa | 1.27 mm | - | 0 W/m² | - |
| 1778039147 | 8.33° C | 99% | 1006.2 hPa | 3.05 mm | - | 0 W/m² | - |
| 1778038844 | 8.89° C | 99% | 1006 hPa | 3.05 mm | - | 0 W/m² | - |
| 1778038542 | 8.89° C | 99% | 1006.1 hPa | 1.27 mm | - | 0 W/m² | - |
| 1778038238 | 8.89° C | 99% | 1006 hPa | 3.05 mm | - | 0 W/m² | - |
| 1778037936 | 8.89° C | 99% | 1006 hPa | 4.83 mm | - | 0 W/m² | - |
| 1778037632 | 8.89° C | 99% | 1006 hPa | 1.78 mm | - | 0 W/m² | - |
| 1778037330 | 8.89° C | 99% | 1005.9 hPa | 1.27 mm | - | 0 W/m² | - |
| 1778037027 | 8.89° C | 99% | 1005.8 hPa | 3.05 mm | - | 0 W/m² | - |
| 1778036725 | 8.89° C | 99% | 1005.9 hPa | 3.56 mm | - | 0 W/m² | - |
| 1778036422 | 8.89° C | 99% | 1006 hPa | 4.83 mm | - | 0 W/m² | - |
| 1778036119 | 8.89° C | 99% | 1005.9 hPa | 4.32 mm | - | 0 W/m² | - |
| 1778035815 | 8.89° C | 99% | 1005.8 hPa | 4.32 mm | - | 0 W/m² | - |
| 1778035512 | 8.89° C | 99% | 1005.9 hPa | 4.83 mm | - | 0 W/m² | - |
| 1778025226 | 9.44° C | 99% | 1003.9 hPa | 1.78 mm | - | 8 W/m² | - |
| 1778024922 | 9.44° C | 99% | 1003.9 hPa | 1.78 mm | - | 8 W/m² | - |
| 1778024620 | 9.44° C | 99% | 1003.9 hPa | 1.78 mm | - | 8 W/m² | - |
* Rain latest hour (hover to see other rain measurements)
** Current wind speed in m/s (hover to see current wind gust speed)